Wetbulb
69.68 69.45 69.35 69.00 69.19 69.18 69.18 69.84 70.63 71.06 70.69 70.88 71.66 71.87 71.24 69.70 69.04 69.52 69.14 67.89 68.46 68.12
69.89 69.65 69.33 69.28 69.71 70.11 69.88 70.28 70.44 71.00 71.03 71.02 71.06 71.29 70.93 70.30 70.02 69.88 69.45 68.94 68.85 68.50
70.14 70.28 69.82 69.02 69.41 69.76 70.02 70.22 70.39 70.15 70.47 70.75 71.15 71.53 70.61 70.17 70.07 69.57 69.53 69.63 68.95 69.27
70.38 70.49 69.82 69.81 69.65 69.80 70.08 69.94 69.89 70.71 70.62 70.31 70.76 70.66 70.38 70.23 70.54 70.19 69.55 69.24 68.75 68.64
70.95 70.83 70.24 70.19 70.59 70.66 70.03 69.80 70.37 70.25 70.08 70.15 69.89 70.59 70.20 69.91 70.61 69.40 69.27 69.74 69.40 69.11
71.27 71.41 71.20 70.83 70.88 70.73 70.47 69.89 70.06 70.05 70.19 70.06 70.04 69.90 70.08 70.13 70.14 69.96 69.85 69.83 69.02 68.58
70.68 71.27 72.29 72.29 71.97 71.68 71.30 70.58 69.82 70.66 70.81 70.47 70.14 70.34 70.54 70.61 70.14 70.27 70.15 70.15 70.04 69.59
67.23 69.55 72.95 72.56 72.45 71.96 72.03 71.82 70.93 70.15 70.54 70.98 70.96 71.17 70.50 70.80 70.68 70.34 70.08 70.10 70.20 70.30
64.02 63.86 68.78 72.98 72.67 72.34 72.15 71.99 71.26 70.54 70.51 69.96 71.16 68.81 68.49 69.88 70.13 70.18 69.34 68.80 69.54 70.62
61.38 62.13 65.27 70.87 72.62 72.45 71.98 71.98 71.36 71.14 70.55 70.53 70.55 66.56 66.73 68.66 70.44 70.22 69.98 70.00 70.40 70.59
61.69 62.49 65.27 69.18 72.12 71.96 72.34 71.78 71.51 71.02 70.61 70.22 70.40 66.27 65.04 67.03 69.95 70.02 70.10 70.48 70.64 70.44
62.90 68.93 65.78 68.13 71.80 72.22 71.61 71.73 71.68 71.80 70.84 69.75 69.16 62.73 61.92 63.83 67.57 68.47 68.76 69.63 70.29 70.17
65.53 67.47 67.14 69.12 71.71 72.47 72.46 72.31 72.62 71.98 71.01 66.02 64.41 60.14 60.02 64.10 66.52 67.68 69.19 69.25 68.78 65.59
67.25 67.52 69.77 70.49 72.14 72.02 72.35 72.43 70.98 70.25 66.82 65.79 62.38 60.28 59.31 59.61 63.44 64.15 66.68 70.00 70.15 69.53
MSLP
1012.82 1013.37 1013.87 1014.34 1014.71 1015.02 1015.13 1015.19 1015.22 1015.40 1015.47 1015.67 1015.81 1015.89 1016.19 1016.64 1016.83 1017.00 1017.13 1017.24 1017.26 1017.29
1012.27 1012.69 1013.08 1013.51 1014.10 1014.53 1014.79 1015.06 1015.23 1015.35 1015.50 1015.66 1015.67 1015.68 1016.02 1016.41 1016.56 1016.66 1016.79 1016.83 1016.93 1017.03
1011.97 1012.48 1012.98 1013.43 1013.96 1014.28 1014.41 1014.58 1015.00 1015.21 1015.53 1015.50 1015.48 1015.58 1015.76 1016.04 1016.26 1016.50 1016.58 1016.59 1016.79 1016.83
1011.74 1012.12 1012.52 1012.82 1013.20 1013.52 1013.56 1013.72 1014.17 1014.55 1014.93 1015.26 1015.36 1015.31 1015.44 1015.58 1015.77 1016.10 1016.27 1016.45 1016.56 1016.59
1011.36 1011.87 1012.13 1012.23 1012.35 1012.73 1013.09 1013.30 1013.42 1013.77 1014.10 1014.32 1014.71 1014.94 1015.18 1015.20 1015.35 1015.76 1016.03 1016.16 1016.32 1016.39
1012.22 1010.97 1010.98 1011.61 1011.63 1011.76 1012.14 1012.41 1012.86 1013.29 1013.58 1013.78 1013.77 1014.22 1014.63 1014.73 1014.97 1015.16 1015.41 1015.66 1015.85 1015.87
1012.24 1012.16 1011.79 1010.62 1010.64 1011.48 1011.59 1011.82 1011.93 1012.36 1012.77 1013.02 1013.28 1013.45 1013.74 1014.10 1014.48 1014.66 1014.89 1015.15 1015.35 1015.41
1012.16 1012.19 1011.20 1010.85 1010.15 1009.99 1010.82 1011.11 1011.50 1011.74 1011.95 1012.28 1012.66 1013.02 1013.37 1013.56 1014.01 1014.39 1014.63 1014.80 1015.01 1015.02
1011.25 1010.84 1010.64 1010.20 1009.90 1009.31 1009.62 1010.43 1010.78 1010.99 1011.11 1011.70 1012.04 1012.31 1012.70 1013.22 1013.60 1014.00 1014.22 1014.64 1014.61 1014.66
1010.17 1009.67 1009.81 1009.32 1009.34 1008.96 1008.61 1009.53 1009.96 1010.37 1010.75 1011.16 1011.49 1011.72 1012.00 1012.34 1012.85 1013.30 1013.47 1013.74 1013.96 1014.12
1009.20 1009.01 1007.93 1008.66 1007.94 1007.83 1007.74 1008.56 1008.78 1009.46 1009.77 1010.40 1010.77 1011.09 1011.32 1011.66 1012.28 1012.78 1012.98 1013.15 1013.39 1013.58
1007.82 1006.03 1005.85 1007.17 1006.80 1006.82 1006.98 1007.91 1008.12 1008.50 1008.92 1009.85 1010.14 1010.49 1011.16 1011.57 1011.88 1012.20 1012.32 1012.49 1012.66 1012.79
1006.06 1005.13 1005.29 1005.08 1005.53 1006.08 1005.86 1006.60 1006.94 1007.57 1008.49 1009.62 1010.32 1010.17 1010.75 1011.37 1011.82 1012.16 1012.28 1012.10 1011.91 1012.01
1003.05 1004.22 1005.75 1005.33 1005.33 1004.98 1004.84 1005.30 1006.25 1007.24 1008.44 1009.08 1009.27 1009.93 1009.74 1010.08 1010.19 1010.61 1010.78 1010.76 1011.25 1011.33
Wind_Speed
13 8 8 8 6 6 6 6 6 7 6 7 7 6 5 3 4 4 4 5 4 3
12 12 10 9 7 6 5 5 6 6 7 6 6 7 6 4 5 5 5 5 5 4
12 11 8 5 6 6 6 6 5 7 6 7 7 9 7 5 5 6 5 4 5 4
10 9 7 8 8 8 7 7 7 7 7 7 7 6 7 6 6 7 6 5 6 7
8 8 9 9 9 8 9 7 10 8 7 7 6 7 8 8 7 7 6 6 5 7
7 10 12 11 10 9 9 8 7 7 9 10 9 8 8 9 9 8 8 7 7 7
8 8 10 10 11 10 10 9 9 9 10 9 7 8 8 7 7 7 7 7 7 6
5 12 12 12 11 11 11 11 10 9 9 8 8 7 8 8 8 8 7 7 8 7
6 6 12 13 13 11 12 11 10 10 10 9 7 10 12 9 7 8 7 7 7 7
6 9 11 14 14 14 12 10 11 11 10 10 9 12 13 13 6 7 7 7 7 6
6 12 9 14 17 15 12 13 12 11 11 9 8 13 12 11 6 5 6 7 8 8
12 14 10 16 16 15 11 12 11 10 11 10 8 6 3 1 1 4 6 6 6 7
8 16 10 13 17 16 12 13 10 11 7 10 10 17 16 11 5 1 5 7 7 12
14 17 10 14 16 13 13 11 8 10 11 12 13 11 16 11 5 5 5 5 7 6
Wind_Direction
202 199 202 202 188 201 208 213 216 202 198 202 202 209 197 188 196 190 200 204 205 190
201 200 199 192 192 202 191 215 220 213 206 211 204 207 192 194 203 200 214 225 216 216
203 206 206 180 192 188 203 213 210 215 225 222 209 203 199 205 209 199 218 215 218 220
207 200 186 195 203 201 199 198 205 205 196 219 237 220 205 208 208 204 212 224 214 230
192 198 203 204 204 193 203 201 207 204 207 201 210 222 215 211 213 205 213 222 212 226
270 201 198 214 212 191 199 200 202 200 214 219 214 199 216 218 214 201 208 210 211 219
314 270 253 216 200 207 204 205 201 208 215 209 204 209 210 201 209 212 211 215 218 219
300 307 257 238 223 193 204 207 205 202 208 205 202 210 208 204 210 214 218 218 223 224
250 290 283 245 227 208 205 214 203 206 202 206 215 207 198 200 207 211 215 227 225 228
245 266 274 259 235 217 203 204 208 206 196 205 205 202 205 199 197 201 205 212 224 236
244 278 272 260 238 217 201 207 200 201 198 201 204 199 204 206 205 218 224 222 225 228
302 312 266 247 245 219 197 205 202 203 196 193 212 178 60 120 260 244 237 232 233 224
326 348 236 227 232 222 197 202 195 194 182 125 126 117 111 115 126 283 275 259 228 216
7 20 13 327 251 219 206 182 160 137 136 149 146 147 147 145 155 191 227 238 250 231